AUA108 LOWI-LOWW

Flight info

Callsign AUA108
Flight time 0h 42m
Altitude 29000
Route RTT2Q RTT DCT NEMAL NEMA2W
Aircraft A319/M-SDE3FGHIRWY/LB1

Departure

Time 2026-04-23 17:04
Airport Innsbruck Airport (LOWI)

Arrival

Time 2026-04-23 17:46
Airport Vienna International Airport (LOWW)
Time Latitude Longitude Altitude Speed Heading
2026-04-23 16:28 47.25833 11.35177 1895 ft 0 kts 171°
2026-04-23 16:29 47.25830 11.35110 1896 ft 0 kts 171°
2026-04-23 16:58 47.25853 11.35106 1891 ft 4 kts 181°
2026-04-23 16:58 47.25878 11.35113 1892 ft 4 kts 217°
2026-04-23 16:59 47.25888 11.35132 1901 ft 0 kts 261°
2026-04-23 17:00 47.25886 11.35114 1894 ft 6 kts 261°
2026-04-23 17:01 47.25874 11.35009 1901 ft 13 kts 261°
2026-04-23 17:01 47.25857 11.34852 1904 ft 24 kts 261°
2026-04-23 17:01 47.25828 11.34580 1904 ft 27 kts 261°
2026-04-23 17:01 47.25799 11.34308 1900 ft 27 kts 261°
2026-04-23 17:02 47.25780 11.34131 1904 ft 26 kts 261°
2026-04-23 17:02 47.25846 11.33806 1896 ft 25 kts 306°
2026-04-23 17:02 47.25931 11.33587 1904 ft 25 kts 271°
2026-04-23 17:02 47.25906 11.33338 1894 ft 24 kts 260°
2026-04-23 17:03 47.25838 11.33141 1902 ft 21 kts 257°
2026-04-23 17:03 47.25882 11.33108 1895 ft 7 kts 72°
2026-04-23 17:03 47.25884 11.33127 1904 ft 0 kts 81°
2026-04-23 17:03 47.25892 11.33211 1900 ft 36 kts 82°
2026-04-23 17:04 47.25977 11.33985 1904 ft 112 kts 81°
2026-04-23 17:04 47.26127 11.35365 2007 ft 154 kts 80°
2026-04-23 17:04 47.26296 11.36925 2608 ft 155 kts 78°
2026-04-23 17:04 47.26500 11.38481 3267 ft 157 kts 78°
2026-04-23 17:05 47.26727 11.40163 3665 ft 179 kts 78°
2026-04-23 17:05 47.26976 11.42025 4225 ft 188 kts 78°
2026-04-23 17:05 47.27225 11.43923 4958 ft 189 kts 79°
2026-04-23 17:05 47.27552 11.45817 5661 ft 193 kts 73°
2026-04-23 17:06 47.27919 11.47728 6333 ft 196 kts 72°
2026-04-23 17:06 47.28296 11.49669 6999 ft 197 kts 72°
2026-04-23 17:06 47.28670 11.51612 7668 ft 198 kts 72°
2026-04-23 17:06 47.29044 11.53571 8276 ft 200 kts 72°
2026-04-23 17:07 47.29417 11.55540 8915 ft 200 kts 71°
2026-04-23 17:07 47.29792 11.57519 9600 ft 201 kts 71°
2026-04-23 17:07 47.30169 11.59512 10327 ft 202 kts 70°
2026-04-23 17:07 47.30546 11.61511 11004 ft 203 kts 70°
2026-04-23 17:08 47.30922 11.63516 11712 ft 203 kts 70°
2026-04-23 17:08 47.31463 11.65410 12383 ft 201 kts 53°
2026-04-23 17:08 47.32299 11.67178 12699 ft 221 kts 51°
2026-04-23 17:08 47.33228 11.69110 13022 ft 242 kts 51°
2026-04-23 17:09 47.34227 11.71194 13548 ft 254 kts 51°
2026-04-23 17:09 47.35280 11.73400 14042 ft 274 kts 51°
2026-04-23 17:09 47.36425 11.75807 14338 ft 299 kts 51°
2026-04-23 17:09 47.37665 11.78420 14574 ft 323 kts 52°
2026-04-23 17:10 47.38995 11.81230 14828 ft 343 kts 52°
2026-04-23 17:10 47.40220 11.84325 15417 ft 355 kts 60°
2026-04-23 17:10 47.41284 11.87649 16135 ft 361 kts 62°
2026-04-23 17:10 47.42335 11.91031 16867 ft 365 kts 62°
2026-04-23 17:11 47.43423 11.94447 17570 ft 369 kts 62°
2026-04-23 17:11 47.44531 11.97889 18279 ft 373 kts 62°
2026-04-23 17:11 47.45654 12.01362 18897 ft 376 kts 62°
2026-04-23 17:11 47.46784 12.04863 19498 ft 379 kts 62°
2026-04-23 17:12 47.47535 12.07199 19900 ft 380 kts 62°
2026-04-23 17:12 47.48668 12.10740 20503 ft 382 kts 62°
2026-04-23 17:12 47.49803 12.14294 20993 ft 383 kts 62°
2026-04-23 17:12 47.50940 12.17866 21535 ft 385 kts 62°
2026-04-23 17:13 47.52079 12.21450 22036 ft 387 kts 63°
2026-04-23 17:13 47.53226 12.25070 22532 ft 389 kts 63°
2026-04-23 17:13 47.54374 12.28704 23012 ft 390 kts 63°
2026-04-23 17:13 47.55524 12.32345 23416 ft 392 kts 63°
2026-04-23 17:14 47.56684 12.36009 23864 ft 394 kts 63°
2026-04-23 17:14 47.57849 12.39682 24298 ft 394 kts 63°
2026-04-23 17:14 47.59014 12.43364 24738 ft 395 kts 63°
2026-04-23 17:14 47.60177 12.47063 25161 ft 397 kts 63°
2026-04-23 17:15 47.61342 12.50778 25500 ft 399 kts 63°
2026-04-23 17:15 47.62511 12.54517 25874 ft 400 kts 63°
2026-04-23 17:15 47.63682 12.58266 26279 ft 401 kts 63°
2026-04-23 17:15 47.64857 12.62025 26652 ft 402 kts 63°
2026-04-23 17:16 47.66036 12.65798 27025 ft 404 kts 64°
2026-04-23 17:16 47.67217 12.69586 27407 ft 405 kts 64°
2026-04-23 17:16 47.68398 12.73386 27776 ft 406 kts 64°
2026-04-23 17:16 47.69583 12.77196 28118 ft 407 kts 64°
2026-04-23 17:17 47.70773 12.81018 28477 ft 408 kts 64°
2026-04-23 17:17 47.71962 12.84852 28816 ft 409 kts 64°
2026-04-23 17:17 47.73151 12.88697 29142 ft 410 kts 64°
2026-04-23 17:17 47.74342 12.92554 29218 ft 414 kts 64°
2026-04-23 17:18 47.76777 13.00460 29220 ft 427 kts 64°
2026-04-23 17:18 47.78014 13.04488 29220 ft 429 kts 64°
2026-04-23 17:19 47.80487 13.12561 29241 ft 430 kts 64°
2026-04-23 17:19 47.82946 13.20603 29253 ft 429 kts 64°
2026-04-23 17:20 47.85409 13.28679 29240 ft 429 kts 64°
2026-04-23 17:21 47.90316 13.44863 29234 ft 428 kts 65°
2026-04-23 17:21 47.91776 13.57982 29233 ft 436 kts 86°
2026-04-23 17:22 47.91705 13.71530 29234 ft 436 kts 86°
2026-04-23 17:23 47.91635 13.85066 29222 ft 435 kts 86°
2026-04-23 17:23 47.91573 13.94011 28888 ft 424 kts 86°
2026-04-23 17:24 47.91537 13.98407 28402 ft 424 kts 86°
2026-04-23 17:24 47.91505 14.02797 27923 ft 423 kts 86°
2026-04-23 17:24 47.91441 14.11536 27007 ft 420 kts 86°
2026-04-23 17:25 47.91363 14.20208 26097 ft 417 kts 86°
2026-04-23 17:25 47.91318 14.24524 25656 ft 418 kts 86°
2026-04-23 17:26 47.91231 14.33482 24795 ft 441 kts 86°
2026-04-23 17:26 47.91124 14.42663 23949 ft 443 kts 86°
2026-04-23 17:27 47.91015 14.51827 22987 ft 441 kts 86°
2026-04-23 17:27 47.90959 14.56391 22506 ft 441 kts 87°
2026-04-23 17:27 47.90901 14.60949 22029 ft 441 kts 87°
2026-04-23 17:27 47.90841 14.65515 21557 ft 440 kts 87°
2026-04-23 17:28 47.90780 14.70071 21089 ft 439 kts 87°
2026-04-23 17:28 47.90716 14.74620 20625 ft 439 kts 87°
2026-04-23 17:28 47.90650 14.79164 20181 ft 438 kts 88°
2026-04-23 17:28 47.90583 14.83702 19741 ft 438 kts 88°
2026-04-23 17:29 47.90515 14.88236 19321 ft 437 kts 87°
2026-04-23 17:29 47.90444 14.92765 18939 ft 437 kts 87°
2026-04-23 17:29 47.90291 15.01728 18160 ft 432 kts 86°
2026-04-23 17:30 47.90212 15.06180 17732 ft 428 kts 88°
2026-04-23 17:30 47.90058 15.14990 16906 ft 423 kts 88°
2026-04-23 17:30 47.89980 15.19365 16486 ft 422 kts 88°
2026-04-23 17:31 47.89894 15.23723 16067 ft 420 kts 86°
2026-04-23 17:31 47.89782 15.28064 15696 ft 418 kts 88°
2026-04-23 17:31 47.89653 15.32369 15328 ft 416 kts 88°
2026-04-23 17:31 47.89517 15.36665 14965 ft 414 kts 88°
2026-04-23 17:32 47.89379 15.40939 14599 ft 412 kts 86°
2026-04-23 17:32 47.89243 15.45177 14243 ft 408 kts 87°
2026-04-23 17:32 47.89107 15.49371 13881 ft 403 kts 85°
2026-04-23 17:32 47.88973 15.53530 13463 ft 401 kts 89°
2026-04-23 17:33 47.88841 15.57690 13064 ft 401 kts 87°
2026-04-23 17:33 47.88711 15.61838 12681 ft 399 kts 85°
2026-04-23 17:33 47.88583 15.65963 12288 ft 399 kts 88°
2026-04-23 17:33 47.88453 15.70094 11907 ft 399 kts 85°
2026-04-23 17:34 47.88319 15.74214 11534 ft 397 kts 88°
2026-04-23 17:34 47.88183 15.78322 11149 ft 396 kts 87°
2026-04-23 17:34 47.87904 15.86506 10438 ft 394 kts 88°
2026-04-23 17:35 47.87761 15.90549 10055 ft 390 kts 88°
2026-04-23 17:35 47.87482 15.98605 9261 ft 388 kts 88°
2026-04-23 17:35 47.87344 16.02620 8900 ft 388 kts 87°
2026-04-23 17:36 47.87203 16.06632 8538 ft 389 kts 88°
2026-04-23 17:36 47.87060 16.10643 8154 ft 388 kts 88°
2026-04-23 17:36 47.86914 16.14646 7798 ft 387 kts 88°
2026-04-23 17:36 47.86767 16.18649 7450 ft 387 kts 88°
2026-04-23 17:37 47.86618 16.22650 7101 ft 387 kts 88°
2026-04-23 17:37 47.86469 16.26648 6759 ft 387 kts 88°
2026-04-23 17:37 47.86163 16.34627 6053 ft 385 kts 88°
2026-04-23 17:38 47.86010 16.38604 5726 ft 384 kts 88°
2026-04-23 17:38 47.85856 16.42569 5419 ft 383 kts 88°
2026-04-23 17:38 47.85701 16.46509 5098 ft 375 kts 87°
2026-04-23 17:38 47.85733 16.50217 4808 ft 353 kts 82°
2026-04-23 17:39 47.85843 16.53777 4491 ft 334 kts 80°
2026-04-23 17:39 47.85920 16.57132 4187 ft 315 kts 82°
2026-04-23 17:39 47.86259 16.60245 3914 ft 287 kts 61°
2026-04-23 17:39 47.87318 16.62540 3653 ft 255 kts 33°
2026-04-23 17:40 47.88775 16.63775 3409 ft 232 kts 17°
2026-04-23 17:40 47.90226 16.64668 3150 ft 219 kts 16°
2026-04-23 17:40 47.91596 16.65468 3021 ft 204 kts 13°
2026-04-23 17:40 47.92939 16.65723 3006 ft 189 kts 352°
2026-04-23 17:41 47.94166 16.65323 3005 ft 176 kts 342°
2026-04-23 17:41 47.96358 16.64402 3011 ft 155 kts 342°
2026-04-23 17:41 47.97349 16.63986 2903 ft 142 kts 342°
2026-04-23 17:42 47.99184 16.63214 2588 ft 134 kts 342°
2026-04-23 17:42 48.00072 16.62840 2423 ft 132 kts 342°
2026-04-23 17:42 48.00909 16.62489 2243 ft 117 kts 343°
2026-04-23 17:43 48.01672 16.62168 2092 ft 111 kts 343°
2026-04-23 17:43 48.02411 16.61856 1947 ft 110 kts 343°
2026-04-23 17:43 48.03143 16.61548 1804 ft 109 kts 343°
2026-04-23 17:43 48.03856 16.61247 1660 ft 106 kts 342°
2026-04-23 17:44 48.04573 16.60945 1506 ft 110 kts 344°
2026-04-23 17:44 48.05323 16.60628 1360 ft 113 kts 342°
2026-04-23 17:44 48.06851 16.59984 1058 ft 115 kts 341°
2026-04-23 17:45 48.07650 16.59647 897 ft 125 kts 341°
2026-04-23 17:45 48.09324 16.58937 617 ft 114 kts 343°
2026-04-23 17:45 48.10002 16.58654 612 ft 90 kts 344°
2026-04-23 17:46 48.10986 16.58236 612 ft 60 kts 344°
2026-04-23 17:46 48.11355 16.58080 612 ft 51 kts 344°
2026-04-23 17:46 48.11665 16.57949 610 ft 40 kts 344°
2026-04-23 17:47 48.11837 16.57833 614 ft 21 kts 308°
2026-04-23 17:47 48.11849 16.57625 609 ft 21 kts 258°
2026-04-23 17:47 48.11850 16.57224 614 ft 17 kts 292°
2026-04-23 17:48 48.11883 16.57058 612 ft 17 kts 295°
2026-04-23 17:48 48.11882 16.56958 617 ft 9 kts 206°
2026-04-23 17:48 48.11846 16.56932 617 ft 2 kts 206°
2026-04-23 17:48 48.11843 16.56930 616 ft 0 kts 206°